Probability
55 32 6 3 0 0 0 0 0 0 0 0 3 3 0 0 0 0 3 6 6 19 26 42 45 48 48 52 52 55 52 45 42 35 39 39 42 42 48 45 45 39 35 32 29 32 39 42 45
45 35 13 0 0 0 0 0 0 0 0 3 3 3 0 3 6 3 6 6 10 13 26 29 55 52 48 45 42 32 32 32 32 32 32 32 32 32 32 26 29 26 23 23 23 26 29 35 35
45 42 6 0 0 0 0 0 0 0 0 3 6 6 6 6 6 6 6 6 10 13 23 35 39 39 39 32 32 29 26 23 23 26 26 26 32 26 26 26 23 23 19 23 19 19 16 23 26
13 10 0 0 0 0 0 0 0 0 0 3 6 6 6 6 6 6 6 6 13 13 23 26 39 32 32 26 23 19 23 19 19 19 26 16 19 16 19 19 19 19 19 13 19 23 16 13 26
10 0 0 0 0 0 0 0 0 3 3 3 3 3 6 6 6 6 3 6 6 10 16 19 32 26 23 23 16 16 19 16 19 13 16 13 6 10 10 13 13 13 10 10 13 13 13 13 19
0 0 0 0 0 0 0 0 3 3 0 3 3 3 6 6 6 3 3 0 0 3 13 16 26 19 13 16 19 19 19 16 6 6 6 3 0 0 6 10 10 10 10 6 6 6 6 13 19
0 0 0 0 0 0 0 0 0 0 0 0 3 3 3 6 3 3 3 0 0 3 3 6 6 10 16 16 16 13 10 6 6 6 6 0 0 0 3 3 10 10 10 10 6 6 6 6 13
0 0 0 0 0 0 0 0 0 0 0 0 3 3 3 6 3 3 0 0 0 0 3 3 3 3 3 6 13 13 6 6 10 10 6 6 6 3 3 6 3 3 10 10 10 10 6 10 13
0 0 0 0 0 0 0 0 0 0 6 6 6 3 6 6 3 3 0 0 0 0 0 0 0 0 0 3 3 10 10 3 6 3 3 3 0 0 0 0 10 10 6 6 10 13 10 13 10
0 0 0 0 0 0 0 0 0 0 0 3 6 6 6 3 3 0 0 0 0 0 0 0 0 0 0 0 0 0 3 0 0 0 0 0 0 0 0 0 3 3 0 0 3 10 3 0 0
0 0 0 0 0 0 0 0 0 0 0 0 6 6 3 3 3 0 0 0 0 0 0 0 0 0 0 0 0 0 0 0 0 0 0 0 0 0 0 0 0 0 0 0 3 0 0 0 0
0 0 0 0 0 0 0 0 0 3 3 3 10 10 6 3 0 0 0 0 0 0 0 0 0 0 0 0 0 0 0 0 0 0 0 0 0 0 0 0 0 0 0 0 0 0 0 0 0
0 0 0 0 0 0 0 0 0 3 3 10 6 3 3 3 0 3 0 0 0 0 0 0 0 0 0 0 0 0 0 0 0 0 0 0 0 0 0 0 0 0 0 0 0 0 0 0 0
0 0 0 0 0 0 0 0 0 3 6 3 3 0 0 0 0 0 0 0 0 0 0 0 0 0 0 0 0 0 0 0 0 0 0 0 0 0 0 0 0 0 0 0 0 0 0 0 0
0 0 0 0 0 0 0 0 0 3 3 3 3 0 0 0 0 0 0 0 0 0 0 0 0 0 0 0 0 0 0 0 0 0 0 0 0 0 0 0 0 0 0 0 0 0 0 0 0
0 0 0 0 0 0 0 0 0 3 3 3 0 0 0 0 0 0 0 0 0 0 0 0 0 0 0 0 0 0 0 0 0 0 0 0 0 0 0 0 0 0 0 0 0 0 0 0 0
0 0 0 0 0 0 0 0 0 3 0 0 0 0 0 0 0 0 0 0 0 0 0 0 0 0 0 0 0 0 0 0 0 0 0 0 0 0 0 0 0 0 0 0 0 0 0 0 0
0 0 0 0 0 0 0 0 0 3 0 0 0 0 0 0 0 0 0 0 3 0 0 0 0 0 0 0 0 0 0 0 0 0 0 0 0 0 0 0 0 0 0 0 0 0 0 0 0
0 0 0 0 0 0 0 0 0 3 0 0 0 0 0 0 0 0 0 0 3 3 0 0 0 0 0 0 0 0 0 0 0 0 0 0 0 0 0 0 0 0 0 0 0 0 0 0 0
0 0 0 0 0 0 0 0 0 3 3 0 0 0 0 0 0 0 0 0 0 3 0 0 0 0 0 0 0 0 0 0 0 0 0 0 0 0 0 0 0 0 0 0 0 0 0 0 0
0 0 0 0 0 0 0 0 0 0 0 0 0 0 0 0 0 0 0 0 0 0 3 3 3 0 0 0 0 0 0 0 0 0 0 0 0 0 0 0 0 0 0 0 0 0 0 0 0
0 0 0 0 0 0 0 0 0 0 0 0 0 0 0 0 0 0 0 0 0 0 3 3 3 3 0 0 0 0 0 0 0 0 0 0 0 0 0 0 0 0 0 0 0 0 0 0 0
0 0 0 0 0 0 0 0 0 0 0 0 0 0 0 0 0 0 0 0 0 0 3 3 3 3 0 0 0 0 0 0 0 0 0 0 0 0 0 0 0 0 0 0 0 0 0 0 0
0 0 0 0 0 0 0 0 0 0 0 0 0 0 0 0 0 0 0 0 0 0 3 3 3 3 0 0 0 0 0 0 0 0 0 0 0 0 0 0 0 0 0 0 0 0 0 0 0
0 0 0 0 0 0 0 0 0 0 0 0 0 0 0 0 0 0 0 0 0 0 3 3 3 3 3 0 0 0 0 0 0 0 0 0 0 0 0 0 0 0 0 0 0 0 0 0 0
0 0 0 0 0 0 0 0 0 0 0 0 0 0 0 0 0 0 0 0 0 0 3 3 3 3 3 0 0 0 0 0 0 0 0 0 0 0 0 0 0 0 0 0 0 0 0 0 0
0 0 0 0 0 0 0 0 0 0 0 0 0 0 0 0 0 0 0 0 0 0 3 3 3 3 3 3 0 0 0 0 0 0 0 0 0 0 0 0 0 0 0 0 0 0 0 0 0
0 0 0 0 0 0 0 0 0 0 0 0 0 0 0 0 0 0 0 0 0 3 3 3 3 3 3 3 0 0 0 0 0 0 0 0 0 0 0 0 0 0 0 0 0 0 0 0 0
0 0 0 0 0 0 0 0 0 0 0 0 0 0 0 0 0 0 0 0 0 0 3 3 3 3 3 3 0 0 0 0 0 0 0 0 0 0 0 0 0 0 0 0 0 0 0 0 0
0 0 0 0 0 0 0 0 0 0 0 0 0 0 0 0 0 0 0 0 0 0 3 3 3 3 3 3 3 0 0 0 0 0 0 0 0 0 0 0 0 0 0 0 0 0 0 0 0
Height
5887 5888 5889 5891 5892 5892 5892 5893 5893 5894 5894 5895 5896 5897 5898 5900 5901 5904 5901 5900 5901 5901 5901 5901 5901 5901 5901 5900 5900 5900 5899 5899 5898 5897 5896 5895 5894 5893 5892 5891 5890 5888 5887 5886 5885 5884 5883 5883 5882
5885 5887 5889 5890 5891 5891 5892 5892 5893 5894 5894 5894 5896 5897 5898 5899 5900 5901 5900 5900 5901 5901 5901 5901 5901 5901 5901 5901 5900 5900 5899 5899 5898 5897 5896 5895 5894 5893 5891 5890 5889 5888 5886 5885 5884 5883 5882 5882 5881
5883 5885 5888 5889 5889 5890 5891 5891 5892 5893 5894 5895 5896 5897 5898 5899 5900 5900 5900 5900 5901 5901 5901 5901 5901 5901 5901 5901 5901 5900 5900 5899 5898 5897 5896 5895 5893 5892 5891 5889 5888 5887 5885 5884 5883 5882 5881 5880 5880
5882 5884 5886 5888 5888 5889 5890 5891 5892 5892 5893 5895 5896 5897 5898 5899 5900 5900 5900 5900 5901 5901 5901 5901 5901 5901 5901 5901 5901 5900 5900 5899 5898 5897 5896 5894 5893 5892 5890 5889 5887 5886 5884 5883 5882 5881 5880 5879 5878
5880 5883 5884 5885 5887 5888 5889 5890 5891 5892 5893 5895 5896 5897 5898 5899 5899 5900 5900 5901 5901 5901 5901 5902 5901 5901 5901 5901 5901 5900 5900 5899 5898 5897 5895 5894 5893 5891 5890 5888 5886 5885 5883 5882 5880 5879 5878 5877 5876
5879 5881 5883 5884 5885 5887 5888 5889 5890 5891 5892 5894 5896 5897 5898 5898 5899 5899 5900 5900 5901 5901 5901 5902 5901 5901 5901 5901 5901 5900 5899 5899 5898 5897 5895 5894 5892 5891 5889 5887 5885 5883 5882 5880 5879 5877 5876 5875 5874
5877 5879 5880 5882 5884 5886 5887 5888 5889 5891 5892 5894 5895 5897 5897 5898 5899 5899 5900 5900 5900 5901 5902 5902 5901 5901 5901 5901 5900 5900 5899 5898 5897 5896 5895 5894 5892 5890 5888 5886 5884 5882 5880 5878 5877 5875 5874 5873 5872
5874 5878 5879 5881 5883 5885 5886 5887 5888 5890 5891 5893 5895 5896 5897 5898 5898 5898 5899 5900 5901 5901 5902 5901 5901 5901 5901 5900 5900 5900 5899 5898 5897 5896 5895 5893 5891 5890 5887 5885 5883 5881 5879 5877 5875 5873 5872 5871 5870
5872 5876 5877 5879 5881 5884 5885 5886 5888 5889 5891 5892 5894 5895 5896 5897 5898 5898 5899 5900 5900 5901 5901 5901 5901 5901 5901 5901 5900 5900 5899 5898 5897 5896 5894 5893 5891 5889 5887 5885 5882 5880 5878 5876 5873 5872 5870 5869 5868
5870 5873 5875 5878 5880 5882 5883 5885 5887 5888 5889 5891 5893 5894 5895 5897 5898 5898 5899 5900 5900 5901 5901 5901 5902 5902 5901 5901 5900 5900 5899 5898 5897 5895 5894 5892 5891 5889 5886 5884 5882 5879 5877 5874 5872 5870 5868 5867 5867
5867 5870 5873 5875 5877 5880 5881 5884 5886 5887 5889 5891 5892 5894 5895 5896 5897 5898 5899 5900 5900 5901 5901 5902 5902 5902 5901 5901 5900 5900 5899 5898 5897 5895 5894 5892 5891 5889 5886 5884 5881 5879 5876 5873 5871 5868 5867 5866 5865
5865 5868 5871 5873 5875 5878 5880 5882 5884 5886 5888 5890 5891 5893 5894 5895 5896 5897 5898 5899 5900 5901 5902 5902 5902 5902 5901 5901 5900 5899 5899 5898 5896 5895 5894 5892 5890 5888 5886 5883 5881 5878 5875 5872 5870 5867 5866 5865 5864
5862 5865 5868 5871 5873 5876 5878 5881 5883 5885 5887 5888 5890 5892 5893 5894 5895 5896 5898 5899 5900 5901 5901 5901 5901 5901 5901 5900 5900 5899 5899 5898 5896 5895 5893 5892 5890 5888 5886 5883 5880 5878 5875 5872 5869 5867 5866 5864 5864
5861 5864 5866 5869 5872 5874 5877 5879 5882 5884 5885 5887 5889 5891 5892 5893 5895 5896 5897 5898 5899 5900 5901 5901 5901 5901 5901 5900 5900 5899 5898 5897 5896 5895 5893 5892 5890 5888 5885 5883 5880 5878 5875 5872 5870 5867 5866 5865 5864
5858 5862 5865 5868 5870 5873 5876 5878 5880 5883 5884 5886 5888 5889 5891 5892 5894 5895 5896 5897 5898 5899 5900 5900 5901 5901 5900 5900 5899 5899 5898 5897 5896 5895 5893 5892 5890 5888 5885 5883 5880 5878 5875 5872 5870 5868 5866 5865 5863
5856 5860 5864 5866 5869 5872 5876 5877 5879 5881 5883 5884 5886 5888 5890 5891 5893 5894 5895 5897 5897 5898 5899 5900 5900 5900 5900 5899 5899 5898 5898 5897 5896 5895 5893 5891 5889 5887 5885 5883 5881 5878 5876 5873 5871 5869 5867 5865 5863
5855 5859 5862 5865 5868 5871 5874 5875 5877 5879 5881 5883 5885 5887 5889 5891 5892 5894 5895 5896 5897 5898 5899 5899 5899 5899 5899 5899 5898 5898 5897 5897 5896 5895 5893 5891 5889 5887 5885 5883 5881 5878 5876 5873 5871 5869 5867 5865 5864
5854 5858 5861 5864 5866 5869 5872 5875 5876 5878 5880 5882 5884 5886 5888 5890 5892 5893 5894 5895 5896 5897 5898 5898 5898 5899 5898 5898 5898 5898 5897 5896 5896 5894 5893 5891 5889 5887 5885 5883 5881 5878 5876 5874 5871 5869 5867 5866 5864
5854 5857 5860 5863 5866 5868 5871 5873 5876 5877 5879 5881 5883 5885 5887 5889 5891 5892 5893 5894 5895 5896 5897 5897 5898 5898 5898 5898 5898 5897 5897 5896 5895 5894 5892 5891 5889 5887 5885 5883 5881 5878 5876 5874 5872 5869 5868 5866 5864
5854 5857 5859 5862 5865 5867 5869 5872 5874 5877 5879 5881 5883 5885 5887 5888 5889 5891 5892 5894 5894 5895 5896 5897 5897 5897 5897 5897 5897 5897 5896 5896 5895 5893 5892 5890 5889 5887 5885 5882 5880 5878 5876 5874 5872 5869 5867 5865 5864
5854 5857 5859 5862 5864 5867 5869 5872 5874 5876 5878 5880 5882 5883 5885 5886 5888 5889 5891 5892 5893 5894 5895 5895 5896 5896 5897 5897 5896 5896 5895 5895 5894 5893 5892 5890 5888 5886 5884 5882 5880 5878 5876 5874 5871 5869 5867 5865 5863
5854 5857 5859 5861 5864 5866 5869 5871 5873 5875 5877 5879 5881 5882 5884 5885 5887 5888 5890 5891 5892 5893 5894 5894 5895 5895 5896 5896 5896 5895 5895 5894 5893 5892 5891 5889 5888 5886 5884 5882 5879 5877 5875 5873 5871 5869 5867 5865 5863
5855 5857 5859 5861 5864 5866 5868 5871 5873 5874 5876 5878 5880 5881 5883 5884 5885 5886 5888 5889 5890 5891 5892 5893 5894 5894 5894 5894 5894 5894 5893 5893 5892 5891 5890 5888 5887 5885 5883 5881 5879 5877 5874 5872 5870 5868 5866 5864 5862
5855 5858 5860 5861 5864 5867 5868 5870 5872 5873 5875 5877 5878 5880 5881 5882 5884 5885 5886 5888 5889 5890 5891 5892 5892 5893 5893 5893 5893 5893 5892 5891 5891 5890 5888 5887 5885 5884 5882 5880 5878 5875 5873 5871 5869 5867 5865 5863 5860
5856 5859 5861 5862 5864 5866 5867 5869 5871 5872 5873 5875 5877 5878 5880 5881 5882 5883 5884 5886 5887 5888 5889 5890 5890 5891 5891 5891 5891 5891 5890 5889 5889 5888 5887 5885 5884 5882 5880 5878 5876 5874 5872 5870 5868 5866 5863 5861 5858
5856 5859 5861 5863 5864 5865 5866 5868 5870 5871 5872 5873 5875 5876 5877 5879 5880 5882 5883 5884 5885 5886 5887 5888 5888 5889 5889 5889 5889 5889 5888 5887 5887 5886 5885 5883 5882 5880 5878 5877 5875 5873 5871 5868 5866 5864 5861 5859 5856
5856 5858 5860 5862 5863 5864 5865 5867 5869 5869 5870 5871 5873 5874 5876 5877 5879 5880 5881 5882 5883 5884 5885 5885 5886 5886 5886 5886 5886 5886 5886 5885 5884 5883 5882 5881 5880 5878 5876 5874 5872 5870 5868 5866 5864 5862 5859 5856 5853
5856 5857 5859 5861 5862 5862 5864 5865 5867 5868 5869 5870 5872 5873 5874 5876 5877 5877 5878 5879 5880 5881 5882 5883 5883 5883 5883 5883 5883 5883 5883 5882 5881 5881 5880 5878 5877 5875 5874 5872 5870 5868 5866 5864 5861 5859 5856 5853 5850
5856 5857 5858 5859 5860 5862 5863 5867 5866 5866 5868 5869 5870 5871 5872 5874 5874 5875 5876 5877 5878 5879 5879 5880 5880 5880 5880 5880 5880 5880 5879 5879 5878 5878 5877 5875 5874 5872 5871 5869 5867 5865 5863 5861 5858 5856 5853 5850 5847
5854 5855 5857 5859 5859 5860 5861 5866 5864 5865 5866 5867 5868 5869 5870 5871 5872 5873 5873 5874 5875 5876 5876 5876 5877 5877 5877 5877 5877 5876 5876 5875 5875 5874 5873 5872 5871 5869 5867 5865 5864 5862 5859 5857 5855 5852 5850 5847 5843
Wind_Speed
9 8 8 8 7 7 7 6 7 7 7 7 7 6 6 7 7 6 6 6 6 6 5 4 4 3 3 3 2 3 3 4 4 4 5 5 5 5 5 5 5 5 5 5 5 5 5 4 4
10 9 9 8 8 7 7 7 8 8 7 7 7 6 6 6 7 6 6 6 5 4 4 3 2 2 2 3 3 3 3 3 4 4 5 5 5 6 6 6 6 6 6 6 6 5 5 5 5
11 11 10 9 9 8 8 9 8 8 8 7 7 7 6 6 6 6 6 5 4 4 3 2 2 2 2 3 3 3 3 4 4 4 5 5 5 6 6 7 7 7 6 6 6 6 6 6 6
12 12 11 11 10 10 10 9 9 8 8 7 6 6 6 7 6 6 5 4 4 4 3 2 2 2 3 3 3 3 4 4 4 5 5 5 6 7 7 8 7 7 7 7 7 7 7 7 7
13 13 12 12 11 10 10 10 8 8 8 7 7 7 6 6 6 6 5 4 4 4 3 2 2 2 3 3 3 3 3 4 4 5 5 6 7 7 8 8 8 8 8 8 9 9 8 8 7
15 14 13 12 12 11 9 10 8 8 9 8 7 7 7 6 6 5 5 4 4 3 3 2 2 2 2 3 3 2 3 4 4 5 6 7 7 8 9 9 9 9 9 9 9 9 9 8 8
16 16 15 14 13 12 11 10 10 9 8 8 8 7 7 6 6 5 4 4 3 3 3 2 2 2 3 3 3 3 3 4 4 5 6 7 8 9 10 10 9 9 9 9 8 8 8 8 7
17 17 16 14 13 12 12 11 11 9 9 9 8 7 7 7 6 5 4 4 4 3 2 2 2 2 3 3 3 3 3 4 5 6 7 8 9 9 10 10 10 10 10 9 9 9 8 7 7
18 17 16 16 15 13 12 11 11 10 9 9 8 8 7 7 6 5 5 4 4 3 2 2 2 3 3 3 3 3 4 5 6 7 8 8 9 9 10 10 10 10 10 10 9 9 8 7 7
19 17 16 16 15 14 14 12 11 11 10 9 8 8 7 6 6 5 6 5 4 3 3 2 2 2 2 2 3 3 4 5 6 7 7 8 9 9 10 11 11 11 11 10 10 9 8 7 6
20 18 17 16 15 14 14 13 12 11 10 9 9 8 7 7 7 7 6 5 4 4 3 2 2 2 2 2 3 4 4 5 6 7 7 8 9 10 10 11 11 12 11 10 10 9 7 6 5
20 19 18 16 15 15 14 12 11 10 10 9 9 9 8 7 7 7 7 6 6 5 4 3 2 2 1 2 2 3 4 5 6 6 7 8 9 10 11 11 12 12 12 11 10 8 7 6 5
20 19 18 16 15 15 14 13 11 10 9 9 8 9 9 8 7 7 7 6 6 5 4 3 2 1 1 1 2 3 4 5 5 6 7 8 9 10 11 12 12 12 12 11 10 9 7 6 5
19 19 18 16 15 14 14 14 12 10 9 9 8 9 9 8 7 7 7 6 6 5 4 3 2 1 0 1 1 2 4 4 5 6 7 8 9 10 11 11 12 12 12 11 10 9 8 7 6
19 19 18 16 15 14 13 13 12 11 10 9 9 9 9 9 8 8 7 7 6 5 4 3 2 1 0 0 1 2 3 4 5 6 7 8 9 10 10 11 11 12 12 12 11 10 9 7 6
19 18 16 16 16 15 13 13 12 11 11 10 9 9 9 9 8 7 7 6 5 5 4 3 2 2 0 0 1 2 3 4 5 6 7 8 9 10 11 11 12 12 12 12 11 11 10 8 7
18 17 17 16 15 14 13 12 12 11 11 10 10 10 10 10 9 8 7 6 5 5 4 3 2 1 0 0 1 2 3 3 5 6 7 8 9 10 11 11 12 12 12 11 11 11 10 9 8
17 16 16 14 14 14 13 12 11 12 11 11 10 10 11 10 10 9 7 6 6 5 4 3 2 1 1 0 1 2 2 3 4 6 7 8 9 9 10 11 11 12 12 11 11 11 10 9 9
15 16 15 14 14 14 12 12 11 11 11 11 10 10 10 10 10 8 7 7 6 5 4 3 3 2 1 0 0 1 2 3 4 5 7 8 8 9 10 10 11 11 11 11 11 10 10 9 9
14 14 14 14 14 14 13 12 12 12 12 11 10 10 10 9 9 9 7 7 6 6 5 4 4 3 2 1 1 1 2 3 4 5 7 7 8 9 9 10 11 11 11 11 11 10 10 10 10
13 14 12 13 13 13 11 11 12 12 12 11 10 10 9 9 8 8 8 7 7 6 6 5 4 3 2 2 1 2 2 3 4 5 7 7 8 9 10 10 11 11 11 11 11 11 11 11 10
12 12 13 13 13 12 11 10 11 11 12 12 11 10 9 9 9 9 9 8 8 7 6 6 5 4 3 2 2 2 3 4 5 6 7 7 8 9 10 10 10 10 11 11 11 11 11 11 11
11 12 13 12 12 11 11 10 10 11 11 12 12 11 10 10 9 9 8 9 8 8 7 7 6 5 4 3 3 3 3 4 5 6 7 8 8 9 10 10 11 11 11 11 11 11 11 12 11
11 12 12 12 12 11 11 10 10 10 11 11 11 11 10 9 9 8 9 9 9 8 8 7 6 6 5 4 4 4 4 5 6 6 7 8 9 10 10 10 11 11 11 11 12 12 12 12 12
11 11 12 11 11 10 10 10 9 10 10 11 11 11 10 10 9 9 9 9 9 8 8 8 8 7 6 6 5 5 6 6 7 7 8 9 9 10 10 11 11 11 11 12 12 12 13 13 13
9 11 11 10 10 10 10 9 9 9 9 10 10 10 9 9 9 10 10 10 10 9 9 9 9 8 7 7 7 7 7 7 8 8 9 9 10 11 11 11 11 11 12 12 13 13 13 14 14
10 11 11 10 10 10 9 9 8 8 9 10 10 9 9 9 10 10 9 10 10 10 9 9 9 9 8 8 8 8 8 8 9 9 10 10 11 12 12 12 12 12 12 13 13 14 14 15 15
9 10 11 10 9 9 10 9 8 8 8 9 9 9 9 9 10 9 8 9 10 10 10 10 10 10 10 10 10 10 10 10 10 10 11 12 12 12 13 13 13 13 13 14 14 15 15 16 16
9 9 10 9 9 8 8 8 7 8 7 8 8 9 9 9 10 10 10 10 10 11 11 11 11 11 11 11 12 12 12 11 11 12 12 13 13 13 13 14 14 14 14 15 15 16 16 17 17
10 10 10 10 10 9 8 7 7 8 8 8 8 9 9 9 10 10 11 11 11 11 12 12 12 12 12 12 13 13 13 13 13 13 14 14 14 14 15 15 15 15 16 16 16 17 17 18 18
Wind_Direction
216 208 199 193 195 199 197 184 174 161 155 162 166 167 159 160 162 157 157 150 144 133 123 109 95 85 72 56 44 30 24 23 21 17 8 0 355 351 351 354 347 337 327 321 313 306 298 296 292
216 209 206 199 200 201 198 190 182 166 163 170 166 163 163 162 161 158 154 154 144 129 123 108 101 82 57 38 34 34 27 21 11 3 1 355 350 346 343 343 340 332 324 317 312 305 298 293 289
216 211 207 201 199 200 194 189 178 168 172 166 160 162 161 161 161 162 154 153 144 127 122 108 96 66 45 39 40 37 27 15 5 357 354 353 349 346 342 335 330 325 320 315 310 305 297 291 287
216 213 208 205 203 204 200 191 184 176 177 170 164 156 155 161 159 161 160 160 150 136 120 101 84 62 49 43 34 25 20 14 6 2 359 357 352 346 341 335 328 322 317 314 310 304 295 288 283
216 211 208 207 209 208 206 204 191 179 176 169 168 160 156 164 162 162 163 160 150 139 125 116 84 55 42 31 27 21 17 12 12 11 4 358 353 348 343 338 332 325 319 316 312 305 296 288 283
214 210 208 208 210 209 207 204 191 185 179 179 174 164 164 169 166 163 163 157 141 129 131 109 63 49 38 20 11 21 16 14 15 11 8 3 356 352 348 343 338 330 322 317 312 306 300 289 282
212 209 209 209 211 213 208 199 191 184 189 191 185 177 177 179 176 170 163 157 140 127 121 96 75 49 32 14 8 23 20 20 17 11 7 2 358 355 352 348 343 336 329 324 317 310 304 294 284
211 211 211 210 211 210 210 203 193 193 196 194 189 184 181 184 187 178 166 156 148 137 123 91 72 49 40 33 28 32 28 21 16 12 8 4 2 359 355 353 349 344 338 332 325 316 307 299 291
208 210 211 211 211 209 207 202 196 197 196 198 192 190 189 195 199 189 174 168 160 149 135 105 83 68 59 52 38 34 28 20 15 12 9 7 4 1 358 355 352 349 343 338 331 324 315 306 298
208 210 211 211 212 212 207 202 193 197 196 199 197 193 194 194 197 196 179 173 171 157 143 127 105 87 68 44 37 30 24 15 12 12 9 7 6 3 359 356 354 352 348 343 336 330 324 318 310
208 208 209 210 211 211 206 203 197 195 194 195 191 192 194 197 196 193 187 181 177 168 151 146 133 106 74 41 28 26 23 14 12 12 9 8 6 5 1 358 356 355 353 348 343 338 331 324 316
206 208 209 209 208 209 205 200 200 198 192 190 190 191 198 198 196 194 186 182 175 169 167 163 151 120 77 39 26 25 20 14 11 9 8 6 5 5 4 1 359 359 357 354 352 348 342 337 328
204 206 208 207 206 207 204 200 197 197 197 194 189 193 196 201 199 191 187 181 173 175 176 170 175 158 49 28 20 20 14 11 9 8 7 6 5 5 4 4 4 4 2 1 2 0 358 353 344
201 203 204 203 206 203 196 196 197 196 197 200 196 194 195 199 199 193 186 183 180 186 188 194 206 213 345 17 15 9 9 10 8 10 9 8 6 6 6 8 10 11 10 10 8 6 5 1 357
197 199 199 199 201 193 190 191 195 197 196 199 200 198 197 199 194 185 183 179 181 191 196 200 207 217 286 10 9 12 15 12 10 11 14 13 11 10 10 13 14 15 15 16 15 11 9 5 358
199 200 199 196 196 194 193 194 195 200 199 196 196 195 190 186 183 181 182 177 177 184 190 198 206 215 245 353 22 17 19 19 17 16 17 17 17 15 15 16 17 16 15 15 15 13 12 10 5
194 192 192 190 194 195 195 194 198 204 199 192 192 191 185 181 181 184 186 183 180 186 194 199 212 222 199 58 29 21 31 29 20 17 18 17 17 13 12 13 12 11 10 9 9 8 9 10 9
186 187 189 194 194 192 191 194 200 197 193 190 191 191 189 185 183 187 189 190 189 192 204 213 214 218 215 43 42 42 43 32 22 17 15 13 12 10 9 8 7 6 7 7 5 3 4 5 4
182 183 187 190 191 191 193 195 192 191 192 189 189 191 194 194 190 189 194 194 194 197 204 206 202 207 197 207 53 39 28 22 19 12 6 4 5 4 3 4 5 4 5 4 3 2 2 1 2
177 183 188 189 188 191 190 190 193 191 191 187 188 192 195 196 196 197 200 199 203 207 210 206 205 208 204 225 273 344 0 3 4 359 356 358 1 1 0 1 2 2 2 2 2 1 0 359 358
179 178 179 180 183 187 186 189 191 190 190 187 190 195 200 201 203 199 202 207 211 214 213 206 206 208 214 232 269 318 334 344 347 348 352 356 358 357 357 357 358 358 358 0 2 1 359 356 353
174 171 171 171 172 178 186 188 187 190 189 188 189 193 196 197 203 201 204 211 214 214 210 209 211 209 212 235 268 302 328 332 336 341 344 349 351 351 351 353 354 354 353 355 357 358 356 352 349
168 164 163 166 170 177 182 186 185 188 188 187 188 190 194 196 197 200 205 208 211 212 211 214 218 219 224 244 265 289 311 315 322 328 333 338 342 345 346 347 349 349 349 350 349 349 349 348 345
164 165 165 167 170 173 179 184 182 187 190 192 193 194 196 197 198 205 207 208 211 212 214 219 225 227 234 251 268 285 297 300 308 317 324 329 332 336 339 341 342 342 343 343 342 341 341 342 340
169 171 170 172 174 178 182 182 179 184 194 195 196 198 200 203 205 210 211 213 216 218 221 226 232 238 246 256 267 280 288 294 302 308 315 320 325 329 332 335 336 337 339 340 339 338 337 337 336
176 179 181 183 183 184 189 185 181 187 192 195 196 201 204 208 214 214 211 216 220 223 229 232 238 243 250 257 266 276 284 293 299 303 308 313 318 323 326 328 330 332 334 336 336 334 333 332 331
178 183 186 190 191 194 192 186 178 179 185 195 199 201 204 210 213 211 213 221 227 229 233 236 241 246 252 258 264 272 279 287 294 300 303 307 312 317 320 323 325 327 328 330 330 330 330 329 328
179 184 184 189 195 199 198 192 182 181 184 191 196 201 208 214 214 218 223 227 234 238 240 244 249 253 257 261 267 272 276 282 288 294 299 303 307 311 315 317 319 321 321 322 324 326 327 327 327
189 194 197 203 204 199 198 195 192 197 200 198 198 203 209 214 217 223 229 235 240 244 247 250 254 257 262 265 269 272 275 278 280 286 293 299 302 306 310 311 313 315 316 317 319 321 322 323 323
198 201 206 217 218 219 211 204 211 210 212 211 212 214 217 222 226 232 235 242 246 248 251 253 256 259 263 267 269 270 272 273 277 283 288 294 299 302 305 306 308 309 310 312 315 317 318 318 318